Regional Weather Roundup
Issued by NWS Charleston, SC

Current Version | Previous Version | Text Only | Print | Product List | Glossary Off
Versions: 1 2 3 4 5 6 7 8 9 10 11 12 13 14 15 16 17 18 19 20 21 22 23 24 25 26 27 28 29 30 31 32 33 34 35 36 37 38 39 40 41 42 43 44 45 46 47 48 49 50

000
ASUS42 KCHS 032313
RWRCHS

REGIONAL WEATHER ROUNDUP
NATIONAL WEATHER SERVICE CHARLESTON SC
700 PM EDT TUE MAY 03 2016

NOTE: "FAIR" INDICATES FEW OR NO CLOUDS BELOW 12,000 FEET WITH NO
SIGNIFICANT WEATHER AND/OR OBSTRUCTIONS TO VISIBILITY.

NOT ALL STATIONS ARE QUALITY CONTROLLED. USE DATA WITH CAUTION...
ESPECIALLY DEWPOINT OBSERVATIONS.

SCZ027-030-031-034>040-042>050-040000-
...SOUTHEAST SOUTH CAROLINA...

CITY           SKY/WX    TMP DP  RH WIND       PRES   REMARKS
N CHARLESTON   CLOUDY    83  67  58 W10       29.77R
WATERFRONT PRK   N/A     78  72  81 S9        29.75S
MOUNT PLEASANT FAIR      81  72  74 S8        29.77S
JOHNS ISLAND   FAIR      79  72  78 S12       29.78S
PINOPOLIS        N/A     82  70  65 W7        29.68R
MONCKS CORNER  FAIR      77  63  61 SW5       29.77R
SUMMERVILLE    FAIR      81  68  65 W10       29.78S
BEAUFORT MCAS  PTSUNNY   76  61  59 NW13G20   29.79R THUNDER
BEAUFORT ARPT  CLOUDY    84  61  45 SW8       29.78R
HILTON HEAD IS NOT AVBL
WALTERBORO     MOCLDY    79  70  73 SW5       29.80R
ALLENDALE      FAIR      73  68  83 CALM      29.78F

...SOUTHERN MIDLANDS AND PEE DEE...

CITY           SKY/WX    TMP DP  RH WIND       PRES   REMARKS
GEORGETOWN     MOCLDY    77  70  78 S10       29.77S
KINGSTREE      FAIR      81  63  54 SW7       29.75F
ORANGEBURG     MOSUNNY   81  64  56 SW8       29.77S
BARNWELL       FAIR      79  70  73 W10       29.79S
AIKEN          FAIR      70  66  88 SW6       29.82F
MANNING        FAIR      81  64  57 SW6       29.76S
COLUMBIA       PTSUNNY   78  65  63 SW16G28   29.75R
SUMTER         MOSUNNY   75  68  78 W9        29.73S
FLORENCE       MOSUNNY   81  65  58 SW10      29.74S
MYRTLE BEACH   MOSUNNY   75  66  73 S12       29.77F
N MYRTLE BEACH CLOUDY    73  68  84 S7        29.77S

$$

GAZ063-065-086>088-099>101-113>116-118-119-134>141-150-040000-
...SOUTHEAST GEORGIA...

CITY           SKY/WX    TMP DP  RH WIND       PRES   REMARKS
SAVANNAH ARPT  PTSUNNY   84  64  50 SW8       29.78S
HUNTER AAF     SUNNY     83  69  61 SW6       29.76S
FORT STEWART   MOSUNNY   82  67  59 SW6       29.77S
STATESBORO     MOSUNNY   82  71  69 W5        29.79S
SYLVANIA       PTCLDY    80  69  69 CALM      29.80S
CLAXTON        MOCLDY    82  69  64 CALM      29.79S

...CSRA...CENTRAL AND FAR SOUTHEAST GEORGIA...

CITY           SKY/WX    TMP DP  RH WIND       PRES   REMARKS
THOMSON        MOSUNNY   76  70  82 SW6       29.83F
AUGUSTA-BUSH   CLOUDY    77  68  73 W8        29.77F
AUGUSTA-DANIEL MOSUNNY   75  67  76 SW5       29.79F
SWAINSBORO     LGT RAIN  79  63  57 W6        29.81S
VIDALIA        CLOUDY    81  64  57 W5        29.81R
EASTMAN        MOCLDY    80  66  61 NW6       29.85R
HAZLEHURST     TSTM      66  65  97 NW5G24    29.82R
ALMA           CLOUDY    76  68  76 SW5       29.81S
WAYCROSS       CLOUDY    80  70  71 W5        29.82S
JESUP          FAIR      81  72  74 W3        29.82R
BAXLEY         TSTM      79  70  73 W6        29.80R
BRUNSWICK      CLOUDY    86  70  58 NW3       29.83R HX  90
SAINT SIMONS   CLOUDY    83  67  58 SW9       29.81R

$$

SCZ027-028-034-036>038-045-046-048>050-GAZ119-141-040000-
...LAKE AND SUPPLEMENTAL COASTAL OBSERVATIONS...

STATION/POSITION TIME  TEMP    WIND        PRES    WAVE   SWELL
                       AIR SEA DIR/SP/G            HT/PER HT/PER/DIR
                 (UTC) (F)     (DEG/KT/KT) (MB)    (FT/S) (FT/S/D)
WINYAH BAY       NOT AVBL
LAKE MURRAY      2200   79     280/  7/  9 1007.1S
ACE BASIN NERRS  NOT AVBL
FORT PULASKI     2200   85 75              1008.7F
SAPELO ISLAND    2200   84     260/ 10     1009.0S

$$

ANZ835-935-AMZ111-154-330-350-352-354-370-450-454-472-040000-
...C-MAN AND BUOY OBSERVATIONS...

STATION/POSITION TIME  TEMP    WIND        PRES    WAVE   SWELL
                       AIR SEA DIR/SP/G            HT/PER HT/PER/DIR
                 (UTC) (F)     (DEG/KT/KT) (MB)    (FT/S) (FT/S/D)
BUOY 41004       2250   75 75  200/ 14/ 17 1008.2R   4/ 6   2/ 8
BUOY 41008       NOT AVBL
FOLLY BEACH CMAN 2200   76     210/ 16/ 17 1008.5S
CAPERS NEARSHORE 2208   75 74  220/ 16/ 21 1008.0R
FRIPP NEARSHORE  2208   76 72  200/ 12/ 16 1007.6F


STATION/POSITION TIME  TEMP    WIND        PRES    WAVE   SWELL
                       AIR SEA DIR/SP/G            HT/PER HT/PER/DIR
                 (UTC) (F)     (DEG/KT/KT) (MB)    (FT/S) (FT/S/D)
5E ST. MARYS GA  2221      74                N/A     3/ 6
FRYING PAN BUOY  2200   75 74  190/ 12/ 14 1008.5S
BUOY 41025       2250   73 72  200/ 19/ 23 1008.1F   4/ 7   3/210/ 7
CAPE LOOKOUT NC  2200   69     170/ 11/ 12 1008.4F
BUOY 41002       2250   69 74   20/ 10/ 16 1012.8F   4/ 6   3/190/ 6
BUOY 41010       2220   78 79  210/  8/ 10 1012.2F
ST AUGUSTINE FL  2300   77 71  110/  8/  9 1011.3R


$$



USA.gov is the U.S. government's official web portal to all federal, state and local government web resources and services.